Location: Mapua
(41.2500°S, 173.1000°E)
Time: 17:32:11
(UTC+13:00)

OTV 5 (USA 277) - Visible Passes

Search period start: 22 March 2019 00:00
Search period end: 01 April 2019 00:00
Orbit: 315 x 320 km, 54.5° (Epoch: 14 March)

Date Brightness Start Highest point End Pass type
(mag) Time Alt. Az. Time Alt. Az. Time Alt. Az.
22 Mar ? 06:41:51 15° WNW 06:42:02 15° NW 06:43:41 10° NNW visible
25 Mar ? 20:35:22 10° N 20:37:35 24° NE 20:37:35 24° NE visible
26 Mar ? 20:49:31 10° NW 20:52:16 75° NE 20:52:42 57° ESE visible
27 Mar ? 21:04:24 10° WNW 21:07:00 37° SW 21:07:34 33° S visible
28 Mar ? 21:19:52 10° WSW 21:21:54 18° SSW 21:22:13 18° SSW visible
29 Mar ? 19:59:21 10° WNW 20:02:05 61° SW 20:04:52 10° SE visible
29 Mar ? 21:36:10 10° SW 21:36:42 11° SSW 21:36:42 11° SSW visible
30 Mar ? 20:14:32 10° W 20:16:54 25° SSW 20:19:18 10° SSE visible
31 Mar ? 20:30:20 10° WSW 20:31:52 14° SSW 20:33:25 10° S visible
